This is the latest recevied weather packets stored in our database for station/object W2GLD-13. If no packets are shown the sender has not sent any weather packets the latest 10 day(s).
| Time | Temp. | Humidity | Pressure | Rain* | Wind** | Luminosity | Snow |
|---|---|---|---|---|---|---|---|
| 1778115619 | 10.56° C | 46% | 1011 hPa | 0 mm | - | 5 W/m² | - |
| 1778112019 | 11.11° C | 45% | 1010.7 hPa | 0 mm | - | 27 W/m² | - |
| 1778097660 | 11.11° C | 46% | 1010.8 hPa | 0 mm | - | 301 W/m² | - |
| 1778090519 | 10° C | 47% | 1010.9 hPa | 0 mm | - | 330 W/m² | - |
| 1778083219 | 9.44° C | 55% | 1011.4 hPa | 0 mm | - | 459 W/m² | - |
| 1778072439 | 7.22° C | 63% | 1009.5 hPa | 0 mm | - | 68 W/m² | - |
| 1778054420 | 7.78° C | 62% | 1007.2 hPa | 0 mm | - | 0 W/m² | - |
| 1778040020 | 8.89° C | 60% | 1006.8 hPa | 0 mm | - | 0 W/m² | - |
| 1777982419 | 12.78° C | 74% | 1002.2 hPa | 0 mm | - | 27 W/m² | - |
| 1777968019 | 13.33° C | 90% | 999.3 hPa | 0 mm | - | 0 W/m² | - |
| 1777964418 | 13.89° C | 89% | 998.9 hPa | 0 mm | - | 0 W/m² | - |
| 1777942819 | 18.33° C | 69% | 998 hPa | 0 mm | - | 9 W/m² | - |
| 1777932019 | 24.44° C | 42% | 997.9 hPa | 0 mm | - | 478 W/m² | - |
| 1777921221 | 24.44° C | 30% | 999.6 hPa | 0 mm | - | 934 W/m² | - |
| 1777881619 | 9.44° C | 77% | 1004.2 hPa | 0 mm | - | 0 W/m² | - |
| 1777842019 | 16.67° C | 42% | 1007.8 hPa | 0 mm | - | 297 W/m² | - |
| 1777834819 | 17.22° C | 39% | 1009 hPa | 0 mm | - | 819 W/m² | - |
| 1777806040 | 3.89° C | 64% | 1012 hPa | 0 mm | - | 3 W/m² | - |
| 1777802419 | 2.78° C | 63% | 1012.2 hPa | 0 mm | - | 0 W/m² | - |
| 1777798820 | 2.22° C | 66% | 1012.6 hPa | 0 mm | - | 0 W/m² | - |
| 1777777220 | 3.89° C | 66% | 1014.3 hPa | 0 mm | - | 0 W/m² | - |
| 1777683620 | 6.11° C | 66% | 1013.8 hPa | 0 mm | - | 3 W/m² | - |
| 1777676420 | 7.22° C | 65% | 1013.1 hPa | 0 mm | - | 65 W/m² | - |
| 1777590020 | 10.56° C | 45% | 1012 hPa | 0 mm | - | 81 W/m² | - |
| 1777567547 | 8.89° C | 58% | 1013.7 hPa | 0 mm | - | 118 W/m² | - |
* Rain latest hour (hover to see other rain measurements)
** Current wind speed in m/s (hover to see current wind gust speed)